| time (UTC) | temp C | wind direction | speed KPH | gust KPH | rain 1hr cm | rain 24hr cm | rain mn cm | humidity % | barometer mb |
| 20260503234557 | 19 | 189 | 0.0 | 0.0 | 0.00 | 0.00 | 0.00 | 43 | 1018.0 |
| 20260503234055 | 19 | 200 | 0.0 | 0.0 | 0.00 | 0.00 | 0.00 | 42 | 1018.1 |
| 20260503233551 | 20 | 200 | 0.0 | 3.2 | 0.00 | 0.00 | 0.00 | 42 | 1018.0 |
| 20260503233047 | 20 | 189 | 1.6 | 1.6 | 0.00 | 0.00 | 0.00 | 40 | 1018.1 |
| 20260503232544 | 20 | 218 | 1.6 | 6.4 | 0.00 | 0.00 | 0.00 | 39 | 1018.1 |
| 20260503232042 | 20 | 191 | 1.6 | 1.6 | 0.00 | 0.00 | 0.00 | 41 | 1018.1 |
| 20260503231540 | 21 | 176 | 1.6 | 4.8 | 0.00 | 0.00 | 0.00 | 40 | 1018.0 |
| 20260503231036 | 21 | 202 | 1.6 | 4.8 | 0.00 | 0.00 | 0.00 | 42 | 1018.0 |
| 20260503230532 | 20 | 227 | 0.0 | 0.0 | 0.00 | 0.00 | 0.00 | 42 | 1018.0 |
| 20260503230030 | 20 | 227 | 0.0 | 1.6 | 0.00 | 0.00 | 0.00 | 42 | 1018.1 |
| 20260503225527 | 20 | 226 | 3.2 | 6.4 | 0.00 | 0.00 | 0.00 | 40 | 1018.0 |
| 20260503225021 | 21 | 201 | 0.0 | 3.2 | 0.00 | 0.00 | 0.00 | 40 | 1018.1 |
| 20260503224520 | 21 | 249 | 1.6 | 3.2 | 0.00 | 0.00 | 0.00 | 40 | 1018.3 |
| 20260503224017 | 21 | 278 | 3.2 | 4.8 | 0.00 | 0.00 | 0.00 | 39 | 1018.3 |
| 20260503223515 | 21 | 240 | 6.4 | 9.7 | 0.00 | 0.00 | 0.00 | 39 | 1018.4 |
| 20260503223010 | 21 | 188 | 4.8 | 9.7 | 0.00 | 0.00 | 0.00 | 39 | 1018.1 |
| 20260503222509 | 21 | 239 | 0.0 | 3.2 | 0.00 | 0.00 | 0.00 | 40 | 1018.3 |
| 20260503222006 | 21 | 285 | 0.0 | 3.2 | 0.00 | 0.00 | 0.00 | 39 | 1018.5 |
| 20260503221504 | 21 | 190 | 6.4 | 9.7 | 0.00 | 0.00 | 0.00 | 40 | 1018.4 |
| 20260503221001 | 21 | 228 | 3.2 | 4.8 | 0.00 | 0.00 | 0.00 | 41 | 1018.4 |
| 20260503220457 | 21 | 278 | 6.4 | 9.7 | 0.00 | 0.00 | 0.00 | 40 | 1018.3 |
| 20260503215954 | 21 | 187 | 0.0 | 3.2 | 0.00 | 0.00 | 0.00 | 41 | 1018.5 |
| 20260503215451 | 21 | 239 | 0.0 | 4.8 | 0.00 | 0.00 | 0.00 | 40 | 1018.6 |
| 20260503214949 | 21 | 187 | 4.8 | 6.4 | 0.00 | 0.00 | 0.00 | 40 | 1018.3 |
| 20260503214447 | 21 | 176 | 4.8 | 6.4 | 0.00 | 0.00 | 0.00 | 42 | 1018.4 |
| 20260503213943 | 21 | 224 | 1.6 | 4.8 | 0.00 | 0.00 | 0.00 | 40 | 1018.5 |
| 20260503213442 | 20 | 255 | 3.2 | 11.3 | 0.00 | 0.00 | 0.00 | 40 | 1018.5 |
| 20260503212938 | 20 | 145 | 3.2 | 14.5 | 0.00 | 0.00 | 0.00 | 41 | 1018.4 |
| 20260503212435 | 21 | 242 | 0.0 | 0.0 | 0.00 | 0.00 | 0.00 | 38 | 1018.7 |
| 20260503211933 | 20 | 188 | 4.8 | 4.8 | 0.00 | 0.00 | 0.00 | 41 | 1018.8 |
| 20260503211430 | 20 | 202 | 1.6 | 3.2 | 0.00 | 0.00 | 0.00 | 40 | 1018.7 |
| 20260503210925 | 20 | 158 | 3.2 | 6.4 | 0.00 | 0.00 | 0.00 | 42 | 1018.7 |
| 20260503210422 | 20 | 81 | 0.0 | 4.8 | 0.00 | 0.00 | 0.00 | 40 | 1018.7 |
| 20260503205917 | 20 | 149 | 0.0 | 4.8 | 0.00 | 0.00 | 0.00 | 42 | 1018.8 |
| 20260503205414 | 20 | 185 | 3.2 | 4.8 | 0.00 | 0.00 | 0.00 | 41 | 1018.9 |
| 20260503204910 | 20 | 170 | 3.2 | 4.8 | 0.00 | 0.00 | 0.00 | 38 | 1018.9 |
| 20260503204408 | 20 | 133 | 4.8 | 4.8 | 0.00 | 0.00 | 0.00 | 41 | 1019.0 |
| 20260503203905 | 20 | 182 | 0.0 | 4.8 | 0.00 | 0.00 | 0.00 | 42 | 1019.1 |
| 20260503203402 | 21 | 184 | 6.4 | 6.4 | 0.00 | 0.00 | 0.00 | 40 | 1019.0 |
| 20260503202859 | 21 | 195 | 3.2 | 9.7 | 0.00 | 0.00 | 0.00 | 39 | 1019.1 |
| 20260503202357 | 20 | 193 | 0.0 | 1.6 | 0.00 | 0.00 | 0.00 | 38 | 1019.1 |
| 20260503201855 | 20 | 201 | 1.6 | 4.8 | 0.00 | 0.00 | 0.00 | 38 | 1019.4 |
| 20260503201352 | 20 | 250 | 4.8 | 11.3 | 0.00 | 0.00 | 0.00 | 39 | 1019.1 |
| 20260503200850 | 20 | 164 | 1.6 | 4.8 | 0.00 | 0.00 | 0.00 | 41 | 1019.4 |
| 20260503200345 | 19 | 191 | 0.0 | 6.4 | 0.00 | 0.00 | 0.00 | 44 | 1019.5 |
| 20260503195843 | 20 | 266 | 4.8 | 9.7 | 0.00 | 0.00 | 0.00 | 39 | 1019.6 |
| 20260503195339 | 20 | 208 | 3.2 | 9.7 | 0.00 | 0.00 | 0.00 | 41 | 1019.6 |
| 20260503194836 | 20 | 199 | 4.8 | 9.7 | 0.00 | 0.00 | 0.00 | 40 | 1019.8 |
| 20260503194332 | 21 | 275 | 1.6 | 4.8 | 0.00 | 0.00 | 0.00 | 41 | 1020.0 |
| 20260503193829 | 20 | 175 | 1.6 | 3.2 | 0.00 | 0.00 | 0.00 | 42 | 1020.0 |
| 20260503193324 | 19 | 333 | 0.0 | 6.4 | 0.00 | 0.00 | 0.00 | 46 | 1020.0 |
| 20260503192821 | 19 | 167 | 1.6 | 3.2 | 0.00 | 0.00 | 0.00 | 42 | 1020.2 |
| 20260503192316 | 20 | 113 | 3.2 | 6.4 | 0.00 | 0.00 | 0.00 | 43 | 1020.2 |
| 20260503191812 | 19 | 146 | 0.0 | 1.6 | 0.00 | 0.00 | 0.00 | 47 | 1020.1 |
| 20260503191310 | 18 | 146 | 1.6 | 6.4 | 0.00 | 0.00 | 0.00 | 47 | 1020.1 |
| 20260503190806 | 19 | 162 | 4.8 | 6.4 | 0.00 | 0.00 | 0.00 | 43 | 1020.2 |
| 20260503190304 | 18 | 214 | 0.0 | 6.4 | 0.00 | 0.00 | 0.00 | 45 | 1020.3 |
| 20260503185801 | 19 | 175 | 3.2 | 11.3 | 0.00 | 0.00 | 0.00 | 46 | 1020.3 |
| 20260503185256 | 19 | 110 | 1.6 | 3.2 | 0.00 | 0.00 | 0.00 | 45 | 1020.4 |
| 20260503184756 | 18 | 283 | 1.6 | 4.8 | 0.00 | 0.00 | 0.00 | 46 | 1020.4 |
| 20260503184253 | 18 | 185 | 3.2 | 4.8 | 0.00 | 0.00 | 0.00 | 44 | 1020.7 |
| 20260503183748 | 18 | 160 | 6.4 | 11.3 | 0.00 | 0.00 | 0.00 | 48 | 1020.8 |
| 20260503183246 | 17 | 192 | 3.2 | 3.2 | 0.00 | 0.00 | 0.00 | 49 | 1020.6 |
| 20260503182744 | 18 | 146 | 1.6 | 1.6 | 0.00 | 0.00 | 0.00 | 52 | 1020.7 |
| 20260503182243 | 17 | 188 | 1.6 | 4.8 | 0.00 | 0.00 | 0.00 | 51 | 1020.7 |
| 20260503181739 | 17 | 139 | 4.8 | 4.8 | 0.00 | 0.00 | 0.00 | 50 | 1020.8 |
| 20260503181236 | 17 | 191 | 3.2 | 6.4 | 0.00 | 0.00 | 0.00 | 49 | 1021.0 |
| 20260503180732 | 17 | 356 | 3.2 | 6.4 | 0.00 | 0.00 | 0.00 | 46 | 1021.1 |
| 20260503180231 | 17 | 115 | 4.8 | 11.3 | 0.00 | 0.00 | 0.00 | 49 | 1020.9 |
| 20260503175727 | 17 | 198 | 1.6 | 6.4 | 0.00 | 0.00 | 0.00 | 46 | 1021.1 |
| 20260503175225 | 17 | 288 | 0.0 | 6.4 | 0.00 | 0.00 | 0.00 | 45 | 1021.4 |
| 20260503174721 | 17 | 247 | 3.2 | 11.3 | 0.00 | 0.00 | 0.00 | 44 | 1021.1 |
| 20260503174219 | 17 | 206 | 3.2 | 3.2 | 0.00 | 0.00 | 0.00 | 46 | 1021.2 |
| 20260503173714 | 17 | 176 | 0.0 | 6.4 | 0.00 | 0.00 | 0.00 | 48 | 1021.0 |
| 20260503173210 | 17 | 288 | 6.4 | 9.7 | 0.00 | 0.00 | 0.00 | 46 | 1020.9 |
| 20260503172707 | 16 | 254 | 1.6 | 4.8 | 0.00 | 0.00 | 0.00 | 48 | 1021.3 |
| 20260503172204 | 16 | 220 | 4.8 | 12.9 | 0.00 | 0.00 | 0.00 | 46 | 1021.4 |
| 20260503171700 | 16 | 359 | 1.6 | 3.2 | 0.00 | 0.00 | 0.00 | 48 | 1021.3 |
| 20260503171158 | 16 | 157 | 3.2 | 4.8 | 0.00 | 0.00 | 0.00 | 47 | 1021.6 |
| 20260503170655 | 16 | 271 | 1.6 | 4.8 | 0.00 | 0.00 | 0.00 | 48 | 1021.7 |
| 20260503170151 | 16 | 199 | 4.8 | 11.3 | 0.00 | 0.00 | 0.00 | 47 | 1021.7 |
| 20260503160113 | 15 | 139 | 0.0 | 0.0 | 0.00 | 0.00 | 0.00 | 58 | 1022.3 |
| 20260503150543 | 14 | 350 | 3.2 | 4.8 | 0.00 | 0.00 | 0.00 | 62 | 1022.5 |
| 20260503130933 | 12 | 239 | 1.6 | 3.2 | 0.00 | 0.00 | 0.00 | 77 | 1021.8 |
| 20260503130431 | 12 | 237 | 0.0 | 1.6 | 0.00 | 0.00 | 0.00 | 75 | 1021.7 |
| 20260503110824 | 4 | 343 | 0.0 | 0.0 | 0.00 | 0.00 | 0.00 | 97 | 1020.9 |
| 20260503110320 | 4 | 343 | 0.0 | 0.0 | 0.00 | 0.00 | 0.00 | 97 | 1020.6 |
| 20260503100247 | 5 | 343 | 0.0 | 0.0 | 0.00 | 0.00 | 0.00 | 95 | 1020.3 |
| 20260503090206 | 6 | 237 | 0.0 | 0.0 | 0.00 | 0.00 | 0.00 | 91 | 1019.6 |
| 20260503081138 | 6 | 278 | 0.0 | 0.0 | 0.00 | 0.00 | 0.00 | 90 | 1019.4 |
| 20260503080634 | 6 | 282 | 0.0 | 0.0 | 0.00 | 0.00 | 0.00 | 89 | 1019.2 |
| 20260503080131 | 7 | 258 | 0.0 | 0.0 | 0.00 | 0.00 | 0.00 | 89 | 1019.1 |
| 20260503072608 | 8 | 342 | 0.0 | 1.6 | 0.00 | 0.00 | 0.00 | 83 | 1019.0 |
| 20260503072106 | 8 | 218 | 0.0 | 0.0 | 0.00 | 0.00 | 0.00 | 83 | 1018.9 |
| 20260503071602 | 7 | 251 | 0.0 | 1.6 | 0.00 | 0.00 | 0.00 | 83 | 1018.9 |
| 20260503071059 | 7 | 243 | 0.0 | 0.0 | 0.00 | 0.00 | 0.00 | 85 | 1018.8 |
| 20260503070555 | 7 | 243 | 0.0 | 0.0 | 0.00 | 0.00 | 0.00 | 85 | 1018.9 |
| 20260503055014 | 8 | 248 | 0.0 | 0.0 | 0.00 | 0.00 | 0.00 | 82 | 1018.9 |
| 20260503054510 | 8 | 248 | 0.0 | 0.0 | 0.00 | 0.00 | 0.00 | 81 | 1018.9 |
| 20260503054008 | 8 | 248 | 0.0 | 0.0 | 0.00 | 0.00 | 0.00 | 81 | 1018.9 |
| 20260503053506 | 8 | 248 | 0.0 | 0.0 | 0.00 | 0.00 | 0.00 | 80 | 1018.8 |
| 20260503053002 | 8 | 248 | 0.0 | 0.0 | 0.00 | 0.00 | 0.00 | 80 | 1018.8 |
| 20260503052500 | 8 | 248 | 0.0 | 0.0 | 0.00 | 0.00 | 0.00 | 79 | 1019.0 |
| 20260503051956 | 8 | 247 | 0.0 | 0.0 | 0.00 | 0.00 | 0.00 | 79 | 1018.8 |
| 20260503051452 | 9 | 248 | 0.0 | 0.0 | 0.00 | 0.00 | 0.00 | 77 | 1018.8 |
| 20260503050949 | 9 | 248 | 0.0 | 0.0 | 0.00 | 0.00 | 0.00 | 74 | 1018.9 |
| 20260503050445 | 9 | 248 | 0.0 | 0.0 | 0.00 | 0.00 | 0.00 | 73 | 1019.0 |
| 20260503045943 | 10 | 248 | 0.0 | 0.0 | 0.00 | 0.00 | 0.00 | 73 | 1019.0 |
| 20260503045440 | 10 | 248 | 0.0 | 0.0 | 0.00 | 0.00 | 0.00 | 72 | 1018.8 |
| 20260503044936 | 10 | 248 | 0.0 | 0.0 | 0.00 | 0.00 | 0.00 | 69 | 1018.7 |
| 20260503044433 | 10 | 248 | 0.0 | 0.0 | 0.00 | 0.00 | 0.00 | 68 | 1018.7 |
| 20260503043931 | 11 | 248 | 0.0 | 0.0 | 0.00 | 0.00 | 0.00 | 67 | 1018.6 |
| 20260503043427 | 11 | 248 | 0.0 | 0.0 | 0.00 | 0.00 | 0.00 | 66 | 1018.7 |
| 20260503042924 | 11 | 248 | 0.0 | 1.6 | 0.00 | 0.00 | 0.00 | 64 | 1018.8 |
| 20260503042421 | 11 | 255 | 1.6 | 3.2 | 0.00 | 0.00 | 0.00 | 64 | 1018.7 |
| 20260503041917 | 11 | 253 | 0.0 | 4.8 | 0.00 | 0.00 | 0.00 | 63 | 1018.7 |
| 20260503041414 | 12 | 183 | 0.0 | 4.8 | 0.00 | 0.00 | 0.00 | 62 | 1018.9 |
| 20260503040911 | 12 | 213 | 3.2 | 4.8 | 0.00 | 0.00 | 0.00 | 61 | 1018.5 |
| 20260503040409 | 12 | 256 | 6.4 | 6.4 | 0.00 | 0.00 | 0.00 | 61 | 1018.5 |
| 20260503035906 | 12 | 242 | 1.6 | 4.8 | 0.00 | 0.00 | 0.00 | 62 | 1018.6 |
| 20260503035402 | 12 | 202 | 4.8 | 6.4 | 0.00 | 0.00 | 0.00 | 61 | 1018.3 |
| 20260503034900 | 12 | 236 | 1.6 | 3.2 | 0.00 | 0.00 | 0.00 | 62 | 1018.5 |
| 20260503034357 | 11 | 238 | 3.2 | 4.8 | 0.00 | 0.00 | 0.00 | 62 | 1018.3 |
| 20260503033854 | 11 | 189 | 0.0 | 0.0 | 0.00 | 0.00 | 0.00 | 67 | 1018.4 |
| 20260503033352 | 11 | 189 | 0.0 | 0.0 | 0.00 | 0.00 | 0.00 | 66 | 1018.2 |
| 20260503032849 | 11 | 189 | 0.0 | 0.0 | 0.00 | 0.00 | 0.00 | 65 | 1018.4 |
| 20260503032348 | 11 | 189 | 0.0 | 0.0 | 0.00 | 0.00 | 0.00 | 66 | 1018.3 |
| 20260503031845 | 11 | 189 | 0.0 | 0.0 | 0.00 | 0.00 | 0.00 | 65 | 1018.2 |
| 20260503031343 | 11 | 189 | 0.0 | 0.0 | 0.00 | 0.00 | 0.00 | 72 | 1018.2 |
| 20260503030839 | 11 | 189 | 0.0 | 0.0 | 0.00 | 0.00 | 0.00 | 70 | 1018.3 |
| 20260503030336 | 11 | 189 | 0.0 | 0.0 | 0.00 | 0.00 | 0.00 | 65 | 1018.1 |
| 20260503025832 | 11 | 189 | 0.0 | 0.0 | 0.00 | 0.00 | 0.00 | 67 | 1018.3 |
| 20260503025330 | 11 | 189 | 0.0 | 0.0 | 0.00 | 0.00 | 0.00 | 68 | 1018.1 |
| 20260503024827 | 11 | 189 | 0.0 | 0.0 | 0.00 | 0.00 | 0.00 | 65 | 1018.0 |
| 20260503024323 | 11 | 189 | 0.0 | 0.0 | 0.00 | 0.00 | 0.00 | 70 | 1018.1 |
| 20260503023820 | 11 | 189 | 0.0 | 0.0 | 0.00 | 0.00 | 0.00 | 69 | 1017.9 |
| 20260503023318 | 11 | 189 | 0.0 | 0.0 | 0.00 | 0.00 | 0.00 | 69 | 1017.7 |
| 20260503022814 | 11 | 189 | 0.0 | 0.0 | 0.00 | 0.00 | 0.00 | 66 | 1017.6 |
| 20260503022309 | 11 | 189 | 0.0 | 0.0 | 0.00 | 0.00 | 0.00 | 67 | 1017.4 |
| 20260503021806 | 11 | 189 | 0.0 | 0.0 | 0.00 | 0.00 | 0.00 | 70 | 1017.5 |
| 20260503021302 | 11 | 189 | 0.0 | 0.0 | 0.00 | 0.00 | 0.00 | 62 | 1017.2 |
| 20260503020800 | 11 | 189 | 1.6 | 1.6 | 0.00 | 0.00 | 0.00 | 60 | 1017.4 |
| 20260503020257 | 11 | 237 | 0.0 | 0.0 | 0.00 | 0.00 | 0.00 | 67 | 1017.1 |
| 20260503015753 | 11 | 237 | 0.0 | 0.0 | 0.00 | 0.00 | 0.00 | 61 | 1017.0 |
| 20260503015250 | 11 | 237 | 0.0 | 0.0 | 0.00 | 0.00 | 0.00 | 65 | 1017.0 |
| 20260503014746 | 11 | 237 | 0.0 | 0.0 | 0.00 | 0.00 | 0.00 | 66 | 1016.8 |
| 20260503014244 | 11 | 237 | 0.0 | 0.0 | 0.00 | 0.00 | 0.00 | 68 | 1016.8 |
| 20260503013741 | 11 | 237 | 0.0 | 0.0 | 0.00 | 0.00 | 0.00 | 68 | 1016.9 |
| 20260503013239 | 11 | 237 | 0.0 | 0.0 | 0.00 | 0.00 | 0.00 | 67 | 1016.8 |
| 20260503012736 | 12 | 237 | 0.0 | 0.0 | 0.00 | 0.00 | 0.00 | 64 | 1016.6 |
| 20260503012233 | 12 | 237 | 0.0 | 0.0 | 0.00 | 0.00 | 0.00 | 64 | 1016.6 |
| 20260503011729 | 12 | 237 | 0.0 | 0.0 | 0.00 | 0.00 | 0.00 | 61 | 1016.5 |
| 20260503011227 | 12 | 237 | 0.0 | 0.0 | 0.00 | 0.00 | 0.00 | 60 | 1016.5 |
| 20260503010722 | 12 | 237 | 0.0 | 0.0 | 0.00 | 0.00 | 0.00 | 60 | 1016.4 |
| 20260503010220 | 12 | 237 | 0.0 | 0.0 | 0.00 | 0.00 | 0.00 | 59 | 1016.4 |
| 20260503005717 | 13 | 237 | 0.0 | 0.0 | 0.00 | 0.00 | 0.00 | 57 | 1016.6 |
| 20260503005214 | 13 | 237 | 0.0 | 0.0 | 0.00 | 0.00 | 0.00 | 56 | 1016.3 |
| 20260503004710 | 13 | 237 | 0.0 | 0.0 | 0.00 | 0.00 | 0.00 | 54 | 1016.3 |
| 20260503004209 | 14 | 217 | 0.0 | 0.0 | 0.00 | 0.00 | 0.00 | 51 | 1016.4 |
| 20260503003706 | 15 | 237 | 0.0 | 0.0 | 0.00 | 0.00 | 0.00 | 49 | 1016.3 |
| 20260503003202 | 15 | 237 | 0.0 | 1.6 | 0.00 | 0.00 | 0.00 | 48 | 1016.3 |
| 20260503002659 | 15 | 220 | 0.0 | 1.6 | 0.00 | 0.00 | 0.00 | 47 | 1016.2 |
| 20260503002156 | 15 | 242 | 0.0 | 0.0 | 0.00 | 0.00 | 0.00 | 47 | 1015.9 |
| 20260503001652 | 15 | 221 | 0.0 | 0.0 | 0.00 | 0.00 | 0.00 | 46 | 1016.1 |
| 20260503001149 | 16 | 242 | 0.0 | 0.0 | 0.00 | 0.00 | 0.00 | 45 | 1016.0 |
| 20260503000647 | 16 | 242 | 0.0 | 0.0 | 0.00 | 0.00 | 0.00 | 43 | 1015.9 |
| 20260503000143 | 16 | 221 | 0.0 | 0.0 | 0.00 | 0.00 | 0.00 | 42 | 1015.8 |
| 20260502235640 | 17 | 252 | 0.0 | 0.0 | 0.00 | 0.00 | 0.00 | 41 | 1015.7 |
| 20260502235138 | 17 | 252 | 1.6 | 3.2 | 0.00 | 0.00 | 0.00 | 39 | 1015.8 |